TimeMST,TemperatureF,Dew PointF,Humidity,Sea Level PressureIn,VisibilityMPH,Wind Direction,Wind SpeedMPH,Gust SpeedMPH,PrecipitationIn,Events,Conditions,WindDirDegrees,DateUTC
12:53 AM,23.0,19.0,85,30.24,10.0,West,3.5,-,N/A,,Clear,260,2013-11-06 07:53:00
1:53 AM,23.0,18.0,81,30.25,10.0,WSW,5.8,-,N/A,,Clear,240,2013-11-06 08:53:00
2:53 AM,19.0,16.0,88,30.26,10.0,SSW,6.9,-,N/A,,Clear,210,2013-11-06 09:53:00
3:53 AM,19.9,16.0,85,30.27,10.0,West,4.6,-,N/A,,Clear,260,2013-11-06 10:53:00
4:53 AM,19.0,15.1,85,30.28,10.0,SSW,6.9,-,N/A,,Clear,210,2013-11-06 11:53:00
5:53 AM,17.1,14.0,88,30.29,10.0,SW,6.9,-,N/A,,Clear,220,2013-11-06 12:53:00
6:53 AM,19.9,17.1,89,30.31,10.0,SW,6.9,-,N/A,,Clear,230,2013-11-06 13:53:00
7:53 AM,25.0,21.0,85,30.33,10.0,West,5.8,-,N/A,,Clear,270,2013-11-06 14:53:00
8:53 AM,30.9,24.1,76,30.33,10.0,WNW,8.1,-,N/A,,Clear,290,2013-11-06 15:53:00
9:53 AM,37.9,24.1,57,30.32,10.0,West,4.6,-,N/A,,Clear,280,2013-11-06 16:53:00
10:53 AM,44.1,21.9,42,30.28,10.0,WSW,6.9,-,N/A,,Clear,250,2013-11-06 17:53:00
11:53 AM,50.0,17.1,27,30.26,10.0,Variable,4.6,-,N/A,,Clear,0,2013-11-06 18:53:00
12:53 PM,53.1,12.0,20,30.23,10.0,SSW,6.9,-,N/A,,Clear,210,2013-11-06 19:53:00
1:53 PM,55.0,5.0,13,30.22,10.0,SW,8.1,-,N/A,,Clear,230,2013-11-06 20:53:00
2:53 PM,55.9,8.1,15,30.22,10.0,SSW,4.6,-,N/A,,Clear,200,2013-11-06 21:53:00
3:53 PM,55.0,8.1,15,30.22,10.0,Calm,Calm,-,N/A,,Clear,0,2013-11-06 22:53:00
4:53 PM,50.0,10.0,20,30.25,10.0,Calm,Calm,-,N/A,,Clear,0,2013-11-06 23:53:00
5:53 PM,44.1,12.9,28,30.29,10.0,ESE,5.8,-,N/A,,Clear,110,2013-11-07 00:53:00
6:53 PM,37.0,16.0,42,30.32,10.0,ENE,5.8,-,N/A,,Clear,70,2013-11-07 01:53:00
7:53 PM,36.0,15.1,43,30.34,10.0,ENE,5.8,-,N/A,,Clear,60,2013-11-07 02:53:00
8:53 PM,30.9,17.1,57,30.37,10.0,Calm,Calm,-,N/A,,Clear,0,2013-11-07 03:53:00
9:53 PM,30.0,16.0,56,30.37,10.0,Calm,Calm,-,N/A,,Clear,0,2013-11-07 04:53:00
10:53 PM,28.0,16.0,61,30.38,10.0,Calm,Calm,-,N/A,,Clear,0,2013-11-07 05:53:00
11:53 PM,27.0,15.1,61,30.37,10.0,Calm,Calm,-,N/A,,Clear,0,2013-11-07 06:53:00